AirNav   Pilot Hours Calculator
 
 837 users online  

6JY8 Cablevision Bethpage Heliport
Bethpage, New York, USA

GOING TO BETHPAGE?


FAA INFORMATION EFFECTIVE 26 JANUARY 2023

Location

FAA Identifier: 6JY8
Lat/Long: 40-45-34.8300N 073-29-47.4100W
40-45.580500N 073-29.790167W
40.7596750,-73.4965028
(estimated)
Elevation: 130.1 ft. / 39.7 m (surveyed)
Variation: 13W (2010)
Time zone: UTC -5 (UTC -4 during Daylight Saving Time)
Zip code: 11714

Heliport Operations

Heliport use: Private use. Permission required prior to landing
Activation date: 05/2005
Control tower: no
ARTCC: NEW YORK CENTER
FSS: NEW YORK FLIGHT SERVICE STATION
NOTAMs facility: FDC (NOTAM-D service not available)
Attendance: UNATNDD
Wind indicator: lighted
Segmented circle: no
Lights: FOR PERIMETER LGTS, RY H1 & H2, CALL 516-694-3023.

Heliport Communications

WX ASOS at FRG (4 nm SE): PHONE 631-752-8129
WX ASOS at JFK (15 nm SW): 128.725 (718-656-0956)
WX ASOS at LGA (17 nm W): PHONE 718-672-6317
WX ASOS at ISP (18 nm E): 120.725 (631-471-0131)

Nearby radio navigation aids

VOR radial/distance  VOR name  Freq  Var
DPKr270/9.0DEER PARK VOR/DME117.7012W
JFKr071/14.6KENNEDY VOR/DME115.9012W
LGAr107/17.0LA GUARDIA VOR/DME113.1012W
CRIr075/20.1CANARSIE VOR/DME112.3011W
TEBr113/26.2TETERBORO VOR/DME108.4011W
BDRr227/29.4BRIDGEPORT VOR/DME108.8012W
CMKr185/31.5CARMEL VOR/DME116.6012W
CCCr265/33.3CALVERTON VOR/DME117.2013W

 
NDB name  Hdg/Dist  Freq  Var  ID
FRIKK226/1.240714WFR ..-. .-.
LOKKS292/14.036614WIS .. ...

Heliport Services

Runway Information

Helipad H1

Dimensions: 80 x 80 ft. / 24 x 24 m
Surface: concrete
Runway edge lights: PERI
Latitude: 40-45.580500N
Longitude: 073-29.790167W
Elevation: 130.0 ft.
Traffic pattern: leftleft

Helipad H2

Dimensions: 80 x 80 ft. / 24 x 24 m
Surface: concrete
Runway edge lights: PERI
Traffic pattern: leftleft

Heliport Ownership and Management from official FAA records

Ownership: Privately-owned
Owner: CABLEVISION SYSTEMS CORP.
111 STEWART AVE
BETHPAGE, NY 11714
Phone 516-803-2682
Manager: DANA TRIOLO
1111 STEWART AVE.
BETHPAGE, NY 11714
Phone 516-803-2682
CELL 516-353-9546

Additional Remarks

FOR CD CTC NEW YORK APCH AT 516-683-2962.

Instrument Procedures

There are no published instrument procedures at 6JY8.

Some nearby airports with instrument procedures:

KFRG - Republic Airport (4 nm SE)
KJFK - John F Kennedy International Airport (15 nm SW)
KLGA - LaGuardia Airport (17 nm W)
KISP - Long Island Mac Arthur Airport (18 nm E)
KHPN - Westchester County Airport (21 nm NW)
 
Loc | Ops | Rwys | IFR | FBO | Links
Com | Nav | Svcs | Stats | Notes
Area around 6JY8 (Cablevision Bethpage Heliport)
 
Road maps at: MapQuest Bing Google
 
Aerial photo
No photo
 
Sectional chart

 
Airport distance calculator
Flying to Cablevision Bethpage Heliport? Find the distance to fly.

From to 6JY8

Sunrise and sunset
Times for 02-Feb-2023
 Local
(UTC-5)
 Zulu
(UTC)
Morning civil twilight06:3511:35
Sunrise07:0412:04
Sunset17:1122:11
Evening civil twilight17:4022:40

Current date and time
Zulu (UTC)  02-Feb-2023 12:35:38
Local (UTC-5)  02-Feb-2023 07:35:38
 
METAR
KFRG 
4nm SE 
021153Z AUTO 00000KT 10SM CLR M03/M09 A3025 RMK AO2 SLP245 T10331094 11017 21044 50000
KJFK 
14nm SW 
021151Z 08003KT 10SM BKN250 M03/M10 A3026 RMK AO2 SLP247 T10281100 11017 21044 58001
KLGA 
18nm W 
021151Z 00000KT 10SM FEW200 BKN250 M02/M13 A3025 RMK AO2 SLP244 T10171128 11006 21022 58001
KISP 
18nm E 
021156Z 00000KT 10SM SCT190 SCT250 M05/M09 A3024 RMK AO2 SLP241 T10501094 11022 21056 58001
TAF
KJFK 
14nm SW 
021132Z 0212/0318 VRB04KT P6SM FEW250 FM021400 24008KT P6SM FEW250 FM022000 24013G21KT P6SM FEW250 FM030400 26015G23KT P6SM FEW050 FEW250 FM030900 30018G28KT P6SM SCT050 FM031300 32022G30KT P6SM SCT050
KLGA 
18nm W 
021132Z 0212/0318 VRB04KT P6SM FEW250 FM021400 23008KT P6SM FEW250 FM022000 24012G20KT P6SM FEW250 FM030400 26014G22KT P6SM FEW250 FM030900 30018G28KT P6SM SCT050 FM031300 32022G30KT P6SM SCT050
KISP 
18nm E 
021132Z 0212/0312 VRB03KT P6SM FEW250 FM021500 23008KT P6SM FEW250 FM022000 23010G17KT P6SM FEW250 FM030500 25013G20KT P6SM FEW250 FM030900 30015G24KT P6SM SCT050
NOTAMs
Click for the latest NOTAMs
NOTAMs are issued by the DoD/FAA and will open in a separate window not controlled by AirNav.

 

 
 

Would you like to see your business listed on this page?

 If your business provides an interesting product or service to pilots, flight crews, aircraft, or users of the Cablevision Bethpage Heliport, you should consider listing it here.  To start the listing process, click on the button below
 
Add a business
 

Other Pages about Cablevision Bethpage Heliport

Update a link
 
Copyright © AirNav, LLC. All rights reserved. Privacy Policy  Contact